This demonstration page uses our WeatherBlox Daily Observations layout. Learn more.

40.92945, -100.16068

Hourly Observations for March 7, 2017

Temp ( °F °C ) Dew Point ( °F °C ) Humidity (%) Winds ( mph kmh ) Pressure ( in mb ) Visibility ( mi km ) Precip ( " mm )
12:15 am 00:15 Clear 31 -0.5 21 -6.2 66 66 W 13 20 30 1016 10 16.0934 0 0
12:35 am 00:35 Clear 32 -0.2 20 -6.6 62 62 W 14 22 29.97 1015 10 16.0934 0 0
12:55 am 00:55 Clear 32 -0.1 19 -7 60 60 W 13 20 29.97 1015 10 16.0934 0 0
1:15 am 01:15 Clear 32 0 19 -7.2 59 59 W 9 15 30 1016 10 16.0934 0 0
1:35 am 01:35 Clear 31 -0.5 19 -7.1 61 61 W 9 15 30.03 1017 10 16.0934 0 0
1:55 am 01:55 Clear 31 -0.7 19 -7.2 62 62 W 10 17 30.03 1017 10 16.0934 0 0
2:15 am 02:15 Clear 32 -0.1 19 -7.1 60 60 W 10 17 30 1016 10 16.0934 0 0
2:35 am 02:35 Clear 32 -0.1 19 -7.1 60 60 W 13 20 30 1016 10 16.0934 0 0
2:55 am 02:55 Clear 31 -0.3 19 -7.2 60 60 W 10 17 30.03 1017 10 16.0934 0 0
3:15 am 03:15 Clear 31 -0.3 19 -7.4 59 59 W 10 17 30.03 1017 10 16.0934 0 0
3:35 am 03:35 Clear 31 -0.5 18 -7.7 59 59 W 12 19 30.03 1017 10 16.0934 0 0
3:55 am 03:55 Clear 31 -0.5 17 -8.1 57 57 W 12 19 30.03 1017 10 16.0934 0 0
4:15 am 04:15 Clear 30 -1 17 -8.5 57 57 W 10 17 30.03 1017 10 16.0934 0 0
4:35 am 04:35 Clear 30 -1.2 16 -8.8 57 57 WSW 9 15 30.03 1017 10 16.0934 0 0
4:55 am 04:55 Clear 30 -1.2 16 -9.1 55 55 W 12 19 30.03 1017 10 16.0934 0 0
5:15 am 05:15 Clear 30 -0.9 14 -9.9 51 51 W 10 17 30.06 1018 10 16.0934 0 0
5:35 am 05:35 Clear 31 -0.5 13 -10.7 46 46 W 12 19 30.06 1018 10 16.0934 0 0
5:55 am 05:55 Clear 30 -1.2 12 -11.2 47 47 WSW 12 19 30.06 1018 10 16.0934 0 0
6:15 am 06:15 Clear 31 -0.8 11 -11.7 44 44 W 14 22 30.06 1018 10 16.0934 0 0
6:35 am 06:35 Clear 31 -0.3 11 -11.7 42 42 W 15 24 30.06 1018 10 16.0934 0 0
6:55 am 06:55 Clear 32 0.2 10 -12 40 40 W 17 28 30.03 1017 10 16.0934 0 0
7:15 am 07:15 Sunny 32 0 10 -12 40 40 W 15 24 30.06 1018 10 16.0934 0 0
7:35 am 07:35 Sunny 33 0.3 11 -11.7 40 40 W 15 24 30.09 1019 10 16.0934 0 0
7:55 am 07:55 Sunny 35 1.4 11 -11.6 38 38 W 16 26 30.06 1018 10 16.0934 0 0
8:15 am 08:15 Sunny 37 2.5 11 -11.5 35 35 W 18 30 30.06 1018 10 16.0934 0 0
8:35 am 08:35 Sunny 38 3.4 11 -11.4 33 33 W 20 31 30.09 1019 10 16.0934 0 0
8:55 am 08:55 Sunny 40 4.5 12 -11.2 31 31 W 23 37 30.06 1018 10 16.0934 0 0
9:15 am 09:15 Sunny 42 5.4 12 -11.1 30 30 W 21 33 30.06 1018 10 16.0934 0 0
9:35 am 09:35 Sunny 42 5.5 11 -11.9 28 28 W 22 35 30.06 1018 10 16.0934 0 0
9:55 am 09:55 Sunny 44 6.6 11 -11.7 26 26 W 28 44 30.06 1018 10 16.0934 0 0
10:15 am 10:15 Sunny 45 7.3 11 -11.4 25 25 W 25 41 30.03 1017 10 16.0934 0 0
10:35 am 10:35 Partly Cloudy 46 8 11 -11.4 24 24 W 25 41 30.03 1017 10 16.0934 0 0
10:55 am 10:55 Mostly Cloudy 47 8.5 11 -11.4 23 23 W 25 41 30.03 1017 10 16.0934 0 0
11:15 am 11:15 Partly Cloudy 49 9.4 11 -11.9 21 21 W 25 41 30.03 1017 10 16.0934 0 0
11:35 am 11:35 Partly Cloudy 47 8.2 10 -12.3 22 22 W 23 37 30.03 1017 10 16.0934 0 0
11:55 am 11:55 Partly Cloudy 50 9.8 11 -11.8 21 21 WNW 33 54 30.03 1017 10 16.0934 0 0
12:15 pm 12:15 Sunny 50 10.1 11 -11.5 21 21 WNW 26 43 30 1016 10 16.0934 0 0
12:35 pm 12:35 Sunny 51 10.5 11 -11.9 20 20 WNW 28 44 30 1016 10 16.0934 0 0
12:55 pm 12:55 Partly Cloudy 50 10.1 10 -12 20 20 WNW 29 46 30 1016 10 16.0934 0 0
1:15 pm 13:15 Mostly Cloudy 48 9.1 11 -11.5 22 22 WNW 31 50 30.03 1017 10 16.0934 0 0
1:35 pm 13:35 Cloudy 51 10.7 8 -13.5 17 17 W 33 54 30 1016 10 16.0934 0 0
1:55 pm 13:55 Mostly Cloudy 53 11.4 7 -13.8 16 16 WNW 35 56 30 1016 10 16.0934 0 0
2:15 pm 14:15 Partly Cloudy 53 11.7 6 -14.6 14 14 WNW 33 54 30 1016 10 16.0934 0 0
2:35 pm 14:35 Partly Cloudy 53 11.8 2 -16.8 12 12 WNW 36 57 30 1016 7 11.26538 0 0
2:55 pm 14:55 Partly Cloudy 51 10.8 4 -15.4 14 14 WNW 33 54 30 1016 10 16.0934 0 0
3:15 pm 15:15 Sunny 52 11.3 3 -15.9 13 13 WNW 35 56 30.03 1017 10 16.0934 0 0
3:35 pm 15:35 Sunny 52 11.3 4 -15.6 14 14 WNW 33 54 30.03 1017 10 16.0934 0 0
3:55 pm 15:55 Sunny 52 11.1 3 -16 13 13 WNW 33 54 30.03 1017 10 16.0934 0 0
4:15 pm 16:15 Sunny 52 11 4 -15.7 14 14 WNW 38 61 30.03 1017 10 16.0934 0 0
4:35 pm 16:35 Sunny 51 10.6 2 -16.4 13 13 WNW 32 52 30.03 1017 10 16.0934 0 0
4:55 pm 16:55 Sunny 51 10.5 2 -16.6 13 13 WNW 31 50 30.03 1017 10 16.0934 0 0
5:15 pm 17:15 Sunny 50 10.2 4 -15.6 15 15 WNW 26 43 30.06 1018 10 16.0934 0 0
5:35 pm 17:35 Sunny 51 10.3 5 -15 15 15 WNW 23 37 30.03 1017 10 16.0934 0 0
5:55 pm 17:55 Sunny 50 9.9 6 -14.6 16 16 NW 17 28 30.06 1018 10 16.0934 0 0
6:15 pm 18:15 Sunny 49 9.2 6 -14.4 17 17 NW 17 28 30.06 1018 10 16.0934 0 0
6:35 pm 18:35 Sunny 47 8.2 6 -14.2 19 19 WNW 15 24 30.06 1018 10 16.0934 0 0
6:55 pm 18:55 Clear 44 6.6 8 -13.5 22 22 WNW 10 17 30.09 1019 10 16.0934 0 0
7:15 pm 19:15 Clear 38 3.6 8 -13.1 29 29 NW 8 13 30.12 1020 10 16.0934 0 0
7:35 pm 19:35 Clear 36 2.2 8 -13.1 32 32 WNW 7 11 30.15 1021 10 16.0934 0 0
7:55 pm 19:55 Clear 34 1.3 10 -12.4 36 36 WNW 8 13 30.15 1021 10 16.0934 0 0
8:15 pm 20:15 Clear 32 0.1 11 -11.9 40 40 WNW 8 13 30.18 1022 10 16.0934 0 0
8:35 pm 20:35 Clear 31 -0.5 10 -12 42 42 W 6 9 30.21 1023 10 16.0934 0 0
8:55 pm 20:55 Clear 30 -1.1 8 -13.1 40 40 W 6 9 30.21 1023 10 16.0934 0 0
9:15 pm 21:15 Clear 31 -0.4 11 -11.7 43 43 WNW 8 13 30.21 1023 10 16.0934 0 0
9:35 pm 21:35 Clear 31 -0.4 11 -11.7 43 43 WNW 7 11 30.21 1023 10 16.0934 0 0
9:55 pm 21:55 Clear 29 -1.5 11 -11.9 45 45 SW 6 9 30.27 1025 10 16.0934 0 0
10:15 pm 22:15 Clear 29 -1.9 12 -11.1 50 50 W 8 13 30.27 1025 10 16.0934 0 0
10:35 pm 22:35 Clear 27 -2.6 13 -10.6 55 55 W 9 15 30.27 1025 10 16.0934 0 0
10:55 pm 22:55 Clear 26 -3.2 14 -10.2 59 59 W 9 15 30.27 1025 10 16.0934 0 0
11:15 pm 23:15 Clear 28 -2.1 14 -10 55 55 NNW 10 17 30.27 1025 10 16.0934 0 0
11:35 pm 23:35 Clear 29 -1.8 14 -10.2 53 53 SW 9 15 30.27 1025 10 16.0934 0 0
11:55 pm 23:55 Clear 29 -1.8 14 -10.2 53 53 Calm 30.27 1025 10 16.0934 0 0

Powered by AerisWeather